Location: Pensacola
(30.4142°N, 87.2155°W)
Time: 00:15:06
(UTC-05:00)

AO-27 - Visible Passes

Search period start: 07 June 2023 00:00
Search period end: 17 June 2023 00:00
Orbit: 784 x 797 km, 98.8° (Epoch: 06 June)

Date Brightness Start Highest point End Pass type
(mag) Time Alt. Az. Time Alt. Az. Time Alt. Az.
07 Jun 9.8 21:48:14 10° SW 21:52:00 20° W 21:55:46 10° NW visible
08 Jun 8.8 21:17:39 10° S 21:22:31 41° W 21:27:24 10° NNW visible
09 Jun 7.7 20:47:59 10° SSE 20:53:10 85° WSW 20:58:22 10° NNW visible
10 Jun 8.0 20:18:59 10° SE 20:23:55 47° ENE 20:28:51 10° N visible
10 Jun 10.1 22:00:34 10° SW 22:03:31 15° W 22:06:29 10° WNW visible
11 Jun 9.2 21:29:27 10° SSW 21:34:00 31° W 21:38:35 10° NW visible
12 Jun 8.0 20:59:28 10° S 21:04:36 65° WSW 21:09:45 10° NNW visible
13 Jun 7.8 20:30:14 10° SSE 20:35:19 62° ENE 20:40:25 10° N visible
13 Jun 10.3 22:13:33 10° WSW 22:15:04 11° W 22:16:35 10° WNW visible
14 Jun 9.6 21:41:23 10° SSW 21:45:30 24° W 21:49:39 10° NW visible
15 Jun 8.5 21:11:05 10° S 21:16:04 49° W 21:21:05 10° NNW visible
16 Jun 7.6 20:41:34 10° SSE 20:46:44 81° ENE 20:51:55 10° N visible
